Date String (YYYY-MM-DD hh:mm:ss) UTC,Instrument flags,Ambient pressure (hPa),Sample flow (lpm),Bypass flow (lpm),Sample temperature (°C),Ambient temperature (°C),ASC tube jacket temperature (°C),LED temperature (°C),Box temperature (°C),Sample RH (%),Span deviation,Mass concentration (μg/m³),Mass concentration (μg/m³),Mass concentration (μg/m³)
DateTimeUTC,F1_M11,P_M11,Q1_M11,Q2_M11,T1_M11,T2_M11,T3_M11,T4_M11,T5_M11,U1_M11,ZSPAN_M11,X2_M11,X0_M11,X1_M11
2022-03-26 00:00:00,,0827.0,4.99,0.00,29.3,28.4,00.0,38.1,31.1,11.9,0003.1,0009.16,0024.74,0006.90
2022-03-26 00:01:00,,0826.9,5.01,0.00,29.3,28.4,00.0,38.1,31.1,11.7,0002.4,0009.23,0025.09,0006.93
2022-03-26 00:02:00,,0826.9,5.01,0.00,29.3,28.4,00.0,38.1,31.1,11.8,0003.0,0009.28,0024.92,0006.96
2022-03-26 00:03:00,,0827.0,4.99,0.00,29.3,28.4,00.0,38.2,31.1,11.9,0003.4,0009.27,0025.15,0006.96
2022-03-26 00:04:00,,0826.9,5.00,0.00,29.3,28.4,00.0,38.2,31.1,12.0,0003.9,0009.31,0025.22,0006.96
2022-03-26 00:05:00,,0826.9,5.01,0.00,29.3,28.5,00.0,38.2,31.1,11.9,0003.8,0009.33,0025.78,0006.97
2022-03-26 00:06:00,,0826.9,4.99,0.00,29.3,28.5,00.0,38.2,31.1,11.8,0004.0,0009.32,0025.68,0007.02
2022-03-26 00:07:00,,0826.8,4.99,0.00,29.3,28.5,00.0,38.2,31.1,11.9,0003.8,0009.35,0026.21,0007.04
2022-03-26 00:08:00,,0827.0,5.02,0.00,29.3,28.5,00.0,38.2,31.1,11.7,0003.7,0009.31,0025.01,0007.05
2022-03-26 00:09:00,,0826.9,5.01,0.00,29.3,28.5,00.0,38.2,31.1,11.7,0002.9,0009.29,0023.64,0007.07
2022-03-26 00:10:00,,0826.8,4.99,0.00,29.4,28.5,00.0,38.2,31.1,11.7,0002.8,0009.30,0023.15,0007.09
2022-03-26 00:11:00,,0826.9,5.00,0.00,29.4,28.5,00.0,38.2,31.1,11.7,0002.6,0009.26,0023.21,0007.11
2022-03-26 00:12:00,,0827.0,5.01,0.00,29.4,28.5,00.0,38.3,31.1,11.7,0002.8,0009.26,0023.84,0007.11
2022-03-26 00:13:00,,0826.9,5.00,0.00,29.4,28.5,00.0,38.3,31.2,11.7,0002.8,0009.28,0024.53,0007.11
2022-03-26 00:14:00,,0826.9,5.00,0.00,29.4,28.5,00.0,38.3,31.2,11.7,0002.6,0009.34,0024.21,0007.14
2022-03-26 00:15:00,,0826.9,5.00,0.00,29.4,28.5,00.0,38.3,31.2,11.9,0002.3,0009.37,0025.70,0007.16
2022-03-26 00:16:00,,0826.9,5.01,0.00,29.4,28.5,00.0,38.3,31.2,11.9,0002.1,0009.45,0025.70,0007.19
2022-03-26 00:17:00,,0826.9,5.00,0.00,29.4,28.6,00.0,38.3,31.2,11.7,0001.7,0009.48,0025.90,0007.21
2022-03-26 00:18:00,,0827.0,5.00,0.00,29.4,28.6,00.0,38.3,31.2,11.7,0001.4,0009.46,0025.04,0007.24
2022-03-26 00:19:00,,0826.9,5.01,0.00,29.4,28.6,00.0,38.3,31.2,11.7,0001.2,0009.49,0024.44,0007.27
2022-03-26 00:20:00,,0826.8,5.02,0.00,29.4,28.6,00.0,38.3,31.2,11.8,0001.0,0009.59,0024.02,0007.29
2022-03-26 00:21:00,,0826.9,4.99,0.00,29.5,28.6,00.0,38.3,31.2,11.7,0001.3,0009.68,0023.47,0007.31
2022-03-26 00:22:00,,0826.8,5.00,0.00,29.5,28.6,00.0,38.4,31.3,11.7,0001.3,0009.76,0022.72,0007.32
2022-03-26 00:23:00,,0826.9,5.02,0.00,29.5,28.6,00.0,38.4,31.3,11.8,0001.3,0009.78,0022.35,0007.32
2022-03-26 00:24:00,,0826.9,4.99,0.00,29.5,28.6,00.0,38.4,31.3,11.8,0001.4,0009.74,0022.14,0007.33
2022-03-26 00:25:00,,0826.9,4.99,0.00,29.5,28.6,00.0,38.4,31.3,11.7,0001.5,0009.69,0022.41,0007.36
2022-03-26 00:26:00,,0826.9,5.02,0.00,29.5,28.6,00.0,38.4,31.3,11.5,0001.4,0009.76,0021.88,0007.39
2022-03-26 00:27:00,,0826.9,5.00,0.00,29.5,28.6,00.0,38.4,31.3,11.5,0001.8,0009.76,0021.78,0007.38
2022-03-26 00:28:00,,0826.9,5.01,0.00,29.5,28.6,00.0,38.4,31.3,11.5,0002.1,0009.78,0021.96,0007.38
2022-03-26 00:29:00,,0826.9,5.00,0.00,29.5,28.7,00.0,38.4,31.3,11.4,0002.3,0009.92,0024.15,0007.40
2022-03-26 00:30:00,,0826.8,4.99,0.00,29.6,28.7,00.0,38.4,31.3,11.5,0002.8,0009.99,0024.49,0007.40
2022-03-26 00:31:00,,0826.9,5.01,0.00,29.6,28.7,00.0,38.4,31.4,11.6,0003.4,0010.00,0025.12,0007.42
2022-03-26 00:32:00,,0826.8,5.00,0.00,29.6,28.7,00.0,38.4,31.4,11.5,0003.2,0009.99,0025.81,0007.44
2022-03-26 00:33:00,,0826.9,4.99,0.00,29.6,28.7,00.0,38.4,31.4,11.5,0003.1,0010.00,0026.75,0007.46
2022-03-26 00:34:00,,0826.9,5.01,0.00,29.6,28.7,00.0,38.5,31.4,11.5,0003.6,0010.02,0027.51,0007.48
2022-03-26 00:35:00,,0827.1,5.00,0.00,29.6,28.7,00.0,38.5,31.4,11.4,0003.1,0010.02,0027.80,0007.49
2022-03-26 00:36:00,,0826.8,4.99,0.00,29.6,28.7,00.0,38.5,31.4,11.3,0003.3,0009.99,0027.39,0007.46
2022-03-26 00:37:00,,0826.8,5.01,0.00,29.6,28.8,00.0,38.5,31.4,11.3,0003.8,0009.96,0026.65,0007.45
2022-03-26 00:38:00,,0826.8,4.99,0.00,29.6,28.8,00.0,38.5,31.4,11.3,0004.1,0010.01,0026.92,0007.47
2022-03-26 00:39:00,,0826.8,4.99,0.00,29.6,28.8,00.0,38.5,31.4,11.3,0003.8,0009.98,0026.63,0007.46
2022-03-26 00:40:00,,0826.8,5.01,0.00,29.6,28.8,00.0,38.5,31.4,11.3,0003.7,0009.85,0024.62,0007.43
2022-03-26 00:41:00,,0826.8,5.00,0.00,29.6,28.8,00.0,38.5,31.4,11.3,0002.9,0009.78,0024.81,0007.41
2022-03-26 00:42:00,,0826.7,4.99,0.00,29.6,28.8,00.0,38.5,31.4,11.3,0002.4,0009.69,0024.52,0007.38
2022-03-26 00:43:00,,0826.7,5.00,0.00,29.6,28.8,00.0,38.5,31.4,11.3,0002.8,0009.64,0025.32,0007.35
2022-03-26 00:44:00,,0826.7,5.01,0.00,29.6,28.8,00.0,38.5,31.4,11.3,0003.6,0009.61,0024.85,0007.32
2022-03-26 00:45:00,,0826.6,5.00,0.00,29.7,28.8,00.0,38.5,31.4,11.3,0003.5,0009.65,0024.73,0007.32
2022-03-26 00:46:00,,0826.7,4.99,0.00,29.7,28.8,00.0,38.6,31.4,11.3,0003.4,0009.72,0024.66,0007.32
2022-03-26 00:47:00,,0826.7,5.02,0.00,29.7,28.8,00.0,38.6,31.4,11.3,0002.9,0009.69,0025.69,0007.32
2022-03-26 00:48:00,,0826.7,5.00,0.00,29.7,28.8,00.0,38.6,31.4,11.3,0002.4,0009.63,0026.06,0007.29
2022-03-26 00:49:00,,0826.7,4.99,0.00,29.7,28.8,00.0,38.6,31.4,11.3,0002.2,0009.55,0025.50,0007.25
2022-03-26 00:50:00,,0826.7,5.02,0.00,29.7,28.8,00.0,38.6,31.5,11.3,0003.0,0009.52,0025.93,0007.21
2022-03-26 00:51:00,,0826.7,4.99,0.00,29.7,28.8,00.0,38.6,31.5,11.4,0003.4,0009.56,0026.41,0007.17
2022-03-26 00:52:00,,0826.7,4.99,0.00,29.7,28.8,00.0,38.6,31.5,11.4,0003.7,0009.53,0026.79,0007.14
2022-03-26 00:53:00,,0826.7,5.01,0.00,29.7,28.9,00.0,38.6,31.5,11.5,0003.7,0009.52,0027.58,0007.11
2022-03-26 00:54:00,,0826.7,5.00,0.00,29.7,28.8,00.0,38.6,31.5,11.5,0003.6,0009.47,0026.82,0007.08
2022-03-26 00:55:00,,0826.7,5.00,0.00,29.7,28.8,00.0,38.6,31.5,11.5,0003.4,0009.41,0027.75,0007.02
2022-03-26 00:56:00,,0826.7,5.02,0.00,29.7,28.8,00.0,38.6,31.5,11.5,0003.5,0009.27,0026.43,0006.96
2022-03-26 00:57:00,,0826.7,4.99,0.00,29.7,28.8,00.0,38.6,31.5,11.5,0003.8,0009.16,0026.30,0006.90
2022-03-26 00:58:00,,0826.7,4.99,0.00,29.7,28.8,00.0,38.6,31.5,11.5,0003.7,0009.16,0026.37,0006.86
2022-03-26 00:59:00,,0826.7,4.99,0.00,29.8,28.8,00.0,38.6,31.5,11.5,0003.5,0009.12,0026.67,0006.84
